Location: Chuathbaluk
(61.5726°N, 159.2454°W)
Time: 17:40:29
(UTC+00:00)

ITAMSAT 1 - Pass Details

Date: 23 January 2021
Orbit: 784 x 796 km, 98.9° (Epoch: 05 March)

Event Time Altitude Azimuth Distance (km) Brightness Sun altitude
Rises 15:30:08 0° 24° (NNE) 3,291 11.3 -26.2°
Reaches altitude 10° 15:33:57 10° 52° (NE) 2,357 10.9 -25.8°
Maximum altitude 15:36:13 13° 79° (ENE) 2,163 10.9 -25.5°
Drops below altitude 10° 15:38:29 10° 105° (ESE) 2,352 11.0 -25.2°
Sets 15:42:16 0° 133° (SE) 3,277 11.5 -24.8°
